BKA749 KHSV-KCLT

Flight info

Callsign BKA749
Flight time 0h 49m
Altitude 31000
Route GQO TAZZA FILPZ4
Aircraft LJ35/L-VGDW/C

Departure

Time 2026-05-08 00:08
Airport Huntsville International Airport (KHSV)

Arrival

Time 2026-05-08 00:58
Airport Charlotte Douglas International Airport (KCLT)
Time Latitude Longitude Altitude Speed Heading
2026-05-08 00:00 34.64027 -86.76237 625 ft 0 kts 108°
2026-05-08 00:05 34.64027 -86.76236 625 ft 0 kts 108°
2026-05-08 00:05 34.64021 -86.76219 631 ft 6 kts 122°
2026-05-08 00:05 34.63962 -86.76213 625 ft 13 kts 183°
2026-05-08 00:05 34.63853 -86.76217 634 ft 19 kts 181°
2026-05-08 00:06 34.63702 -86.76227 623 ft 21 kts 192°
2026-05-08 00:06 34.63670 -86.76309 625 ft 13 kts 270°
2026-05-08 00:06 34.63630 -86.76408 636 ft 15 kts 186°
2026-05-08 00:06 34.63495 -86.76399 628 ft 25 kts 181°
2026-05-08 00:07 34.63301 -86.76403 627 ft 31 kts 181°
2026-05-08 00:07 34.63070 -86.76402 623 ft 36 kts 181°
2026-05-08 00:07 34.62793 -86.76410 617 ft 42 kts 181°
2026-05-08 00:07 34.62592 -86.76434 614 ft 20 kts 217°
2026-05-08 00:08 34.62572 -86.76587 614 ft 11 kts 281°
2026-05-08 00:08 34.62716 -86.76598 623 ft 57 kts
2026-05-08 00:08 34.63487 -86.76581 717 ft 156 kts
2026-05-08 00:08 34.64754 -86.76516 1508 ft 199 kts
2026-05-08 00:09 34.66199 -86.76446 2733 ft 209 kts
2026-05-08 00:09 34.67616 -86.76282 3915 ft 208 kts 12°
2026-05-08 00:09 34.68937 -86.75374 4724 ft 224 kts 43°
2026-05-08 00:09 34.69655 -86.73775 5942 ft 217 kts 72°
2026-05-08 00:10 34.69919 -86.71914 7184 ft 227 kts 79°
2026-05-08 00:10 34.70165 -86.69965 8448 ft 238 kts 76°
2026-05-08 00:10 34.70511 -86.67950 9759 ft 250 kts 72°
2026-05-08 00:10 34.70898 -86.65849 10990 ft 259 kts 73°
2026-05-08 00:11 34.71279 -86.63677 12274 ft 265 kts 73°
2026-05-08 00:11 34.71657 -86.61465 13613 ft 269 kts 72°
2026-05-08 00:11 34.71917 -86.59964 14428 ft 270 kts 72°
2026-05-08 00:11 34.72309 -86.57716 15604 ft 273 kts 73°
2026-05-08 00:12 34.72702 -86.55451 16776 ft 275 kts 73°
2026-05-08 00:12 34.73098 -86.53159 17991 ft 278 kts 73°
2026-05-08 00:12 34.73500 -86.50846 19040 ft 281 kts 73°
2026-05-08 00:12 34.73906 -86.48509 20030 ft 283 kts 73°
2026-05-08 00:13 34.74311 -86.46154 21046 ft 286 kts 73°
2026-05-08 00:13 34.74719 -86.43779 22035 ft 289 kts 74°
2026-05-08 00:13 34.75133 -86.41380 23046 ft 293 kts 74°
2026-05-08 00:13 34.75590 -86.38760 23082 ft 343 kts 75°
2026-05-08 00:14 34.76120 -86.35727 23068 ft 389 kts 75°
2026-05-08 00:14 34.76695 -86.32336 23069 ft 427 kts 76°
2026-05-08 00:14 34.77313 -86.28658 23074 ft 459 kts 76°
2026-05-08 00:14 34.77978 -86.24801 23743 ft 464 kts 76°
2026-05-08 00:15 34.78610 -86.21087 25462 ft 430 kts 76°
2026-05-08 00:15 34.79209 -86.17514 26430 ft 440 kts 75°
2026-05-08 00:15 34.79848 -86.13814 27061 ft 452 kts 75°
2026-05-08 00:15 34.80493 -86.10042 27824 ft 459 kts 75°
2026-05-08 00:16 34.81137 -86.06202 28569 ft 468 kts 75°
2026-05-08 00:16 34.81795 -86.02288 29312 ft 476 kts 75°
2026-05-08 00:16 34.82470 -85.98306 29953 ft 486 kts 75°
2026-05-08 00:16 34.83157 -85.94243 30580 ft 493 kts 75°
2026-05-08 00:17 34.83842 -85.90117 31001 ft 506 kts 75°
2026-05-08 00:17 34.84558 -85.85837 31030 ft 527 kts 76°
2026-05-08 00:17 34.85309 -85.81373 31029 ft 547 kts 76°
2026-05-08 00:17 34.86077 -85.76770 31030 ft 562 kts 76°
2026-05-08 00:18 34.87640 -85.67298 31033 ft 575 kts 76°
2026-05-08 00:18 34.89228 -85.57713 31025 ft 579 kts 76°
2026-05-08 00:19 34.90807 -85.48076 31039 ft 581 kts 76°
2026-05-08 00:19 34.92397 -85.38374 31011 ft 586 kts 76°
2026-05-08 00:20 34.94283 -85.28709 31005 ft 584 kts 66°
2026-05-08 00:20 34.97892 -85.19986 31006 ft 569 kts 47°
2026-05-08 00:21 35.00285 -85.16205 31006 ft 558 kts 39°
2026-05-08 00:21 35.02983 -85.12884 31006 ft 544 kts 30°
2026-05-08 00:21 35.05910 -85.10059 31006 ft 531 kts 22°
2026-05-08 00:21 35.09013 -85.07730 31006 ft 515 kts 14°
2026-05-08 00:22 35.15397 -85.03959 31050 ft 510 kts 11°
2026-05-08 00:22 35.21799 -85.00127 31008 ft 513 kts 11°
2026-05-08 00:23 35.28225 -84.96325 31010 ft 515 kts 11°
2026-05-08 00:23 35.34677 -84.92481 31011 ft 521 kts 11°
2026-05-08 00:24 35.41206 -84.88580 31021 ft 524 kts 11°
2026-05-08 00:24 35.47736 -84.84470 31024 ft 534 kts 16°
2026-05-08 00:25 35.50843 -84.81884 31001 ft 551 kts 26°
2026-05-08 00:25 35.53560 -84.78436 31001 ft 575 kts 42°
2026-05-08 00:25 35.55681 -84.74182 31003 ft 594 kts 58°
2026-05-08 00:25 35.57057 -84.69350 31010 ft 607 kts 73°
2026-05-08 00:26 35.57596 -84.64195 31006 ft 610 kts 89°
2026-05-08 00:26 35.57424 -84.59004 31008 ft 608 kts 98°
2026-05-08 00:26 35.56335 -84.48725 31018 ft 608 kts 101°
2026-05-08 00:27 35.56009 -84.38333 31009 ft 611 kts 86°
2026-05-08 00:27 35.56920 -84.27959 30980 ft 611 kts 82°
2026-05-08 00:28 35.57435 -84.17547 30992 ft 611 kts 90°
2026-05-08 00:28 35.57540 -84.07120 30989 ft 610 kts 87°
2026-05-08 00:29 35.58124 -83.96741 30997 ft 609 kts 88°
2026-05-08 00:29 35.58315 -83.86328 30990 ft 610 kts 88°
2026-05-08 00:30 35.58774 -83.75929 30986 ft 610 kts 86°
2026-05-08 00:30 35.59056 -83.65513 31005 ft 612 kts 89°
2026-05-08 00:31 35.59402 -83.55072 31014 ft 611 kts 87°
2026-05-08 00:31 35.59729 -83.44648 30998 ft 611 kts 88°
2026-05-08 00:32 35.60025 -83.34233 30996 ft 612 kts 88°
2026-05-08 00:32 35.60349 -83.23747 30990 ft 613 kts 88°
2026-05-08 00:33 35.60621 -83.13280 30984 ft 612 kts 88°
2026-05-08 00:33 35.60899 -83.03014 30742 ft 586 kts 89°
2026-05-08 00:34 35.61006 -82.98040 30292 ft 577 kts 89°
2026-05-08 00:34 35.61149 -82.93149 29765 ft 569 kts 87°
2026-05-08 00:34 35.61311 -82.88293 29190 ft 571 kts 87°
2026-05-08 00:34 35.61452 -82.83408 28625 ft 571 kts 89°
2026-05-08 00:35 35.61536 -82.78486 28079 ft 568 kts 89°
2026-05-08 00:35 35.61618 -82.73645 27540 ft 564 kts 88°
2026-05-08 00:35 35.61756 -82.68836 27015 ft 561 kts 88°
2026-05-08 00:35 35.61910 -82.64134 26511 ft 557 kts 88°
2026-05-08 00:36 35.62018 -82.59333 26002 ft 551 kts 89°
2026-05-08 00:36 35.62069 -82.54666 25504 ft 542 kts 89°
2026-05-08 00:36 35.62161 -82.50072 25014 ft 531 kts 89°
2026-05-08 00:36 35.62303 -82.45590 24513 ft 518 kts 87°
2026-05-08 00:37 35.62451 -82.41217 24039 ft 507 kts 88°
2026-05-08 00:37 35.62527 -82.36938 23566 ft 494 kts 89°
2026-05-08 00:37 35.62573 -82.32767 23013 ft 481 kts 89°
2026-05-08 00:38 35.61971 -82.24820 21809 ft 457 kts 107°
2026-05-08 00:38 35.61085 -82.21104 21101 ft 450 kts 111°
2026-05-08 00:38 35.60145 -82.17459 20416 ft 444 kts 110°
2026-05-08 00:38 35.59300 -82.13835 19743 ft 439 kts 107°
2026-05-08 00:39 35.58522 -82.10233 19087 ft 432 kts 107°
2026-05-08 00:39 35.57708 -82.06726 18444 ft 422 kts 109°
2026-05-08 00:39 35.56654 -82.03440 17738 ft 407 kts 117°
2026-05-08 00:39 35.55471 -82.00340 17020 ft 394 kts 119°
2026-05-08 00:40 35.54337 -81.97334 16315 ft 385 kts 117°
2026-05-08 00:40 35.53283 -81.94343 15620 ft 378 kts 116°
2026-05-08 00:40 35.52258 -81.91420 14956 ft 371 kts 116°
2026-05-08 00:40 35.51214 -81.88568 14531 ft 360 kts 117°
2026-05-08 00:41 35.50189 -81.85813 14195 ft 350 kts 116°
2026-05-08 00:41 35.49221 -81.83102 13866 ft 345 kts 116°
2026-05-08 00:41 35.48256 -81.80418 13497 ft 344 kts 116°
2026-05-08 00:41 35.47284 -81.77746 13104 ft 342 kts 117°
2026-05-08 00:42 35.46307 -81.75086 12733 ft 342 kts 117°
2026-05-08 00:42 35.45334 -81.72430 12373 ft 341 kts 117°
2026-05-08 00:42 35.44377 -81.69773 12013 ft 340 kts 117°
2026-05-08 00:42 35.43476 -81.67109 11651 ft 339 kts 112°
2026-05-08 00:43 35.42708 -81.64376 11323 ft 338 kts 111°
2026-05-08 00:43 35.41965 -81.61654 11026 ft 336 kts 111°
2026-05-08 00:43 35.41210 -81.58973 11013 ft 331 kts 112°
2026-05-08 00:43 35.40448 -81.56309 11012 ft 331 kts 112°
2026-05-08 00:44 35.39694 -81.53649 10963 ft 331 kts 112°
2026-05-08 00:44 35.38941 -81.50985 10967 ft 331 kts 112°
2026-05-08 00:44 35.38187 -81.48323 10966 ft 330 kts 112°
2026-05-08 00:44 35.37433 -81.45668 10972 ft 330 kts 112°
2026-05-08 00:45 35.36678 -81.43011 10974 ft 330 kts 112°
2026-05-08 00:45 35.35930 -81.40348 10976 ft 330 kts 112°
2026-05-08 00:45 35.35179 -81.37693 10978 ft 330 kts 112°
2026-05-08 00:45 35.34416 -81.35047 10983 ft 330 kts 112°
2026-05-08 00:46 35.33660 -81.32390 10944 ft 331 kts 112°
2026-05-08 00:46 35.32907 -81.29722 10806 ft 331 kts 112°
2026-05-08 00:46 35.32143 -81.27066 10652 ft 330 kts 113°
2026-05-08 00:46 35.31385 -81.24431 10510 ft 328 kts 112°
2026-05-08 00:47 35.30636 -81.21788 10370 ft 327 kts 112°
2026-05-08 00:47 35.29890 -81.19161 10232 ft 326 kts 112°
2026-05-08 00:47 35.29144 -81.16550 10094 ft 324 kts 112°
2026-05-08 00:47 35.28389 -81.13956 10008 ft 322 kts 115°
2026-05-08 00:48 35.27337 -81.11589 9988 ft 314 kts 130°
2026-05-08 00:48 35.25902 -81.09629 9992 ft 305 kts 144°
2026-05-08 00:48 35.24196 -81.08134 9859 ft 301 kts 157°
2026-05-08 00:48 35.22273 -81.07160 9551 ft 296 kts 169°
2026-05-08 00:49 35.20287 -81.06707 9231 ft 285 kts 182°
2026-05-08 00:49 35.18330 -81.06543 8939 ft 280 kts 182°
2026-05-08 00:49 35.16404 -81.06392 8617 ft 274 kts 183°
2026-05-08 00:49 35.14530 -81.06239 8273 ft 266 kts 182°
2026-05-08 00:50 35.12707 -81.06059 7972 ft 258 kts 182°
2026-05-08 00:50 35.10978 -81.05891 7676 ft 249 kts 181°
2026-05-08 00:50 35.09844 -81.05787 7474 ft 244 kts 181°
2026-05-08 00:50 35.08186 -81.05654 7173 ft 236 kts 183°
2026-05-08 00:51 35.06567 -81.05531 6875 ft 229 kts 182°
2026-05-08 00:51 35.04987 -81.05402 6482 ft 226 kts 182°
2026-05-08 00:51 35.03473 -81.04828 6054 ft 235 kts 152°
2026-05-08 00:51 35.02367 -81.03358 5616 ft 240 kts 119°
2026-05-08 00:52 35.01997 -81.01403 5191 ft 237 kts 88°
2026-05-08 00:52 35.02077 -80.99424 4799 ft 231 kts 82°
2026-05-08 00:52 35.02175 -80.97494 4400 ft 226 kts 82°
2026-05-08 00:52 35.02266 -80.95587 4012 ft 216 kts 82°
2026-05-08 00:53 35.02638 -80.93969 3957 ft 188 kts 52°
2026-05-08 00:53 35.03566 -80.92921 3963 ft 180 kts 32°
2026-05-08 00:53 35.04688 -80.92298 3700 ft 177 kts
2026-05-08 00:53 35.05898 -80.92246 3478 ft 173 kts 359°
2026-05-08 00:54 35.07092 -80.92303 3260 ft 171 kts 357°
2026-05-08 00:54 35.08279 -80.92388 3028 ft 168 kts 356°
2026-05-08 00:54 35.09403 -80.92498 2808 ft 154 kts 356°
2026-05-08 00:54 35.10420 -80.92576 2609 ft 140 kts 357°
2026-05-08 00:55 35.11372 -80.92661 2428 ft 135 kts 359°
2026-05-08 00:55 35.12236 -80.92738 2255 ft 121 kts 359°
2026-05-08 00:55 35.13070 -80.92810 2096 ft 119 kts 359°
2026-05-08 00:55 35.13898 -80.92882 1939 ft 119 kts 359°
2026-05-08 00:56 35.14719 -80.92949 1767 ft 118 kts 359°
2026-05-08 00:56 35.15524 -80.93018 1604 ft 114 kts 357°
2026-05-08 00:56 35.16327 -80.93099 1496 ft 117 kts 359°
2026-05-08 00:56 35.17155 -80.93160 1368 ft 122 kts
2026-05-08 00:57 35.17998 -80.93232 1233 ft 121 kts 358°
2026-05-08 00:57 35.18828 -80.93305 1047 ft 120 kts 358°
2026-05-08 00:57 35.19658 -80.93376 858 ft 120 kts 357°
2026-05-08 00:57 35.20476 -80.93447 734 ft 109 kts 358°
2026-05-08 00:58 35.21006 -80.93491 728 ft 18 kts 358°
2026-05-08 00:58 35.21075 -80.93410 727 ft 16 kts 40°
2026-05-08 00:58 35.21090 -80.93394 727 ft 2 kts 41°
2026-05-08 00:58 35.21098 -80.93385 727 ft 4 kts 43°
2026-05-08 00:59 35.21117 -80.93322 727 ft 12 kts 86°
2026-05-08 00:59 35.21112 -80.93211 728 ft 16 kts 142°
2026-05-08 00:59 35.21012 -80.93189 728 ft 0 kts 177°
2026-05-08 00:59 35.21013 -80.93201 728 ft 0 kts 259°